Hourly Data Report for October 05, 2017

All times are specified in Local Standard Time (LST). Add 1 hour to adjust for Daylight Saving Time where and when it is observed.

ESTEVAN POINT CS
BRITISH COLUMBIA

49°22'59.914" N
126°32'35.193" W
5.80 m
1032731
71894
WEB

Download Data

Hourly Data (October 2017)
Hourly Data Report for October 5, 2017
Temp Definition
°C
Dew Point Temp Definition
°C
Rel Hum Definition
%
Wind Dir Definition
10's deg

Wind Spd Definition
km/h
Visibility Definition
km
Stn Press Definition
kPa
Hmdx Definition


Wind Chill Definition


Weather Definition


TIME
00:00 8.7 LegendMM LegendMM 35 3   101.86     LegendNANA
01:00 7.7 LegendMM LegendMM 15 4   102.03     LegendNANA
02:00 7.0 LegendMM LegendMM 13 8   101.95     LegendNANA
03:00 7.0 LegendMM LegendMM 11 9   101.93     LegendNANA
04:00 7.0 LegendMM LegendMM 12 8   101.89     LegendNANA
05:00 6.8 LegendMM LegendMM 2 5   101.87     LegendNANA
06:00 6.8 LegendMM LegendMM 2 2   101.85     LegendNANA
07:00 7.2 LegendMM LegendMM 0 1   101.88     LegendNANA
08:00 7.6 LegendMM LegendMM 16 3   101.88     LegendNANA
09:00 8.9 LegendMM LegendMM 15 6   101.90     LegendNANA
10:00 11.0 LegendMM LegendMM 20 5   101.90     LegendNANA
11:00 12.7 12.0 96 18 7   102.27     LegendNANA
12:00 13.9 11.9 88 18 7   102.23     LegendNANA
13:00 13.9 12.2 89 25 6   102.21     LegendNANA
14:00 14.4 12.2 87 30 8   102.17     LegendNANA
15:00 14.7 12.6 87 31 15   102.16     LegendNANA
16:00 14.1 12.1 88 32 14   102.11     LegendNANA
17:00 13.9 12.8 93 32 22   102.10     LegendNANA
18:00 12.7 12.4 98 32 23   102.05     LegendNANA
19:00 11.6 LegendMM LegendMM 32 22   102.08     LegendNANA
20:00 12.5 12.5 100 32 23   102.05     LegendNANA
21:00 12.5 12.5 100 32 25   102.03     LegendNANA
22:00 10.3 LegendMM LegendMM 35 15   102.06     LegendNANA
23:00 9.9 LegendMM LegendMM 34 11   101.97     LegendNANA

Notes on Data Quality.

Legend

  • E = Estimated
  • M = Missing
  • NA = Not Available
  • ‡ = Partner data that is not subject to review by the National Climate Archives
Date modified: